Location: Cutler
(25.6150°N, 80.3110°W)
Time: 18:39:07
(UTC-04:00)

Vanguard 1 - Pass Details

Date: 27 January 2018
Orbit: 650 x 3833 km, 34.3° (Epoch: 21 May)

Event Time Altitude Azimuth Distance (km) Brightness Sun altitude
Rises 22:03:49 0° 265° (W) 2,973 - -54.5°
Reaches altitude 10° 22:05:56 10° 271° (W) 2,136 - -55.0°
Maximum altitude 22:10:30 50° 348° (NNW) 1,060 - -56.0°
Drops below altitude 10° 22:17:20 10° 63° (ENE) 3,160 - -57.5°
Sets 22:21:08 0° 68° (ENE) 4,594 - -58.4°
